Temp
13 13 13 13 13 13 13 13 13 14 14 14 15 15 15 15 16 16 16 16 16 16 16 16 15 15 15 15 15 15 16 16 16 17 17 17 17 17 17 16 16 15 15 15 15
13 13 13 13 13 13 14 14 14 14 14 14 14 15 15 15 16 16 16 16 16 16 16 15 15 15 15 15 15 15 16 16 16 16 17 17 17 18 17 16 17 16 16 15 15
12 12 13 13 13 13 13 13 14 14 14 15 15 15 15 15 16 16 16 15 15 15 15 15 15 15 15 15 15 15 16 16 16 16 17 17 17 17 18 18 17 16 16 16 15
12 12 12 13 13 13 13 14 14 14 14 14 14 15 15 15 15 15 15 15 15 15 14 14 14 14 15 15 15 15 16 16 17 16 16 17 17 17 18 18 17 17 16 16 15
12 12 12 13 13 13 13 13 14 14 14 14 14 14 15 15 15 14 14 15 15 14 14 14 14 14 14 14 14 14 16 16 16 16 16 17 17 17 17 18 18 17 16 16 16
12 12 13 13 13 13 13 14 14 14 14 14 14 14 14 15 14 15 14 14 14 14 14 14 14 14 15 15 14 14 15 15 15 16 16 16 17 17 17 18 18 18 17 16 16
12 13 13 13 14 14 14 14 14 14 14 14 14 14 15 14 14 14 14 14 14 15 15 14 13 13 13 14 15 15 15 15 16 17 16 15 16 17 17 18 18 18 18 17 16
12 13 13 13 14 14 14 14 14 15 14 14 14 15 15 14 14 14 13 14 14 14 14 14 13 13 14 14 14 13 13 14 17 15 15 15 16 17 17 18 18 18 19 17 16
12 13 13 14 14 14 14 14 15 15 15 14 14 14 14 14 13 14 14 14 14 14 14 13 13 13 13 14 13 14 14 13 14 14 15 15 15 17 17 17 18 19 19 18 16
12 13 13 13 14 14 14 14 15 15 14 14 14 14 13 13 14 14 13 13 13 13 13 13 13 13 13 13 14 15 14 13 13 14 14 15 15 16 16 17 18 19 19 18 17
12 13 13 13 13 14 14 14 14 14 13 13 13 12 11 12 13 14 13 13 13 12 12 13 12 12 13 14 14 14 14 12 14 14 14 14 14 17 16 17 18 18 18 18 18
12 12 12 12 13 13 14 14 14 13 12 11 11 11 11 12 12 11 12 12 12 12 12 12 12 12 13 13 13 13 12 12 14 14 13 14 15 16 16 17 17 18 18 18 18
12 12 12 12 13 13 13 14 14 13 12 10 10 11 11 12 12 12 11 12 12 12 12 12 12 12 12 13 13 12 12 13 13 13 13 14 15 16 16 16 17 18 18 18 18
11 12 12 12 12 13 13 13 12 12 11 10 10 11 10 11 11 11 11 11 12 12 12 12 13 12 12 12 13 12 12 13 13 13 14 13 14 14 16 17 17 17 17 18 18
11 11 12 12 12 12 12 11 11 11 11 9 10 10 10 10 10 11 11 12 12 12 12 12 12 12 12 13 13 12 13 13 12 12 13 13 13 14 16 17 17 17 17 17 17
11 11 11 11 11 11 11 11 10 10 10 9 9 10 10 10 10 11 11 11 12 12 11 12 11 11 12 12 13 12 12 12 12 12 13 13 14 15 16 16 17 17 17 17 17
10 11 11 11 10 10 10 9 9 9 8 8 9 9 9 9 10 10 11 10 9 10 10 11 12 12 12 11 12 12 12 13 13 13 15 14 12 15 15 16 16 16 17 17 17
10 10 10 10 10 10 9 8 8 7 7 7 8 8 8 8 9 10 10 10 10 9 9 10 12 12 13 12 12 12 12 13 13 14 15 13 14 15 15 16 15 16 16 17 17
9 9 9 9 9 9 8 8 7 6 6 7 7 8 8 8 9 9 9 9 9 9 9 9 11 11 12 12 12 12 12 13 13 11 12 14 13 14 15 15 15 16 16 16 17
8 8 8 8 8 8 7 7 6 6 6 6 7 7 7 7 8 8 9 9 9 9 9 9 10 11 12 12 12 13 13 12 12 12 12 14 13 13 15 15 15 16 16 16 16
7 7 7 7 7 7 7 7 6 5 6 6 6 6 6 7 7 8 8 9 9 9 9 9 9 10 11 12 12 12 12 12 12 12 13 13 14 13 13 14 15 15 15 15 16
7 7 7 7 6 6 6 6 6 5 5 6 6 6 6 6 7 7 7 7 8 8 9 9 9 9 10 11 11 11 11 11 13 11 12 13 13 13 13 14 14 14 15 16 16
6 6 6 6 6 6 5 5 5 5 5 5 6 5 5 6 6 7 7 7 7 8 7 8 9 9 10 11 10 10 10 10 9 11 12 13 13 13 13 13 14 14 15 15 15
6 6 6 5 5 5 5 4 4 4 5 5 5 5 5 5 5 5 6 6 7 7 7 7 8 9 10 9 9 9 8 9 10 10 12 13 14 13 13 13 13 14 15 15 14
5 5 5 5 5 5 5 4 4 4 4 4 4 4 4 4 5 5 5 6 7 6 7 6 7 8 9 9 9 9 9 9 8 8 9 10 11 12 12 13 13 14 14 13 13
4 4 4 4 4 4 4 4 4 4 4 4 4 4 4 4 4 4 5 5 5 7 6 7 6 7 7 9 9 9 9 9 9 9 9 6 8 8 8 10 12 12 13 10 11
3 3 3 4 4 3 4 4 3 4 4 4 3 4 4 4 4 5 5 5 5 5 6 6 5 6 8 8 8 9 8 9 8 8 8 8 8 8 9 8 8 9 10 10 10
Height
3191 3190 3190 3189 3188 3187 3187 3186 3185 3185 3184 3185 3184 3184 3184 3184 3184 3184 3184 3185 3184 3184 3185 3187 3187 3186 3187 3186 3186 3185 3187 3185 3185 3184 3184 3182 3178 3177 3176 3175 3174 3176 3177 3176 3174
3189 3187 3187 3185 3184 3183 3182 3182 3182 3182 3182 3183 3182 3181 3180 3180 3181 3181 3182 3181 3181 3181 3182 3183 3184 3184 3184 3184 3184 3185 3184 3184 3184 3183 3182 3181 3180 3177 3176 3174 3174 3175 3176 3175 3174
3185 3183 3182 3181 3180 3179 3178 3177 3177 3177 3177 3178 3179 3179 3178 3178 3179 3178 3178 3178 3178 3179 3179 3179 3180 3180 3180 3181 3182 3181 3181 3181 3181 3181 3182 3181 3180 3178 3177 3174 3174 3175 3175 3174 3174
3181 3179 3177 3176 3175 3174 3172 3171 3171 3172 3173 3173 3173 3172 3173 3175 3179 3175 3176 3177 3177 3177 3177 3177 3177 3177 3177 3177 3178 3178 3178 3180 3179 3179 3179 3179 3178 3177 3176 3175 3174 3174 3174 3173 3174
3177 3175 3174 3172 3171 3169 3168 3167 3166 3166 3167 3166 3166 3167 3169 3170 3173 3173 3173 3174 3175 3175 3175 3175 3175 3175 3174 3174 3174 3173 3175 3175 3177 3175 3175 3176 3176 3175 3174 3173 3172 3171 3172 3173 3173
3174 3172 3170 3169 3168 3166 3164 3164 3163 3161 3161 3161 3160 3161 3161 3164 3166 3167 3168 3169 3169 3169 3170 3171 3172 3171 3171 3172 3171 3171 3170 3170 3171 3172 3171 3172 3172 3172 3172 3171 3170 3168 3168 3170 3171
3171 3169 3167 3166 3165 3163 3161 3160 3159 3157 3156 3156 3156 3155 3155 3161 3159 3160 3161 3162 3163 3165 3166 3167 3166 3167 3167 3167 3166 3166 3167 3168 3169 3169 3167 3167 3166 3166 3168 3167 3167 3165 3164 3166 3169
3169 3166 3164 3162 3161 3160 3158 3156 3155 3153 3151 3151 3151 3150 3149 3151 3152 3153 3155 3157 3157 3159 3160 3161 3161 3162 3163 3164 3164 3164 3164 3164 3165 3164 3165 3163 3162 3164 3163 3163 3163 3162 3160 3161 3165
3166 3163 3161 3158 3156 3155 3155 3152 3150 3148 3147 3146 3146 3146 3147 3146 3146 3147 3148 3150 3151 3154 3155 3155 3156 3157 3158 3160 3161 3160 3160 3160 3160 3160 3160 3159 3157 3158 3157 3157 3157 3157 3156 3157 3160
3162 3159 3157 3154 3153 3153 3151 3149 3147 3146 3143 3142 3142 3146 3144 3142 3141 3142 3142 3143 3145 3147 3149 3150 3150 3151 3153 3156 3155 3155 3154 3156 3158 3158 3156 3154 3152 3151 3151 3151 3151 3152 3151 3152 3155
3159 3157 3155 3153 3151 3150 3150 3148 3148 3145 3140 3140 3140 3140 3141 3140 3137 3137 3137 3139 3140 3142 3143 3144 3145 3142 3147 3151 3151 3150 3150 3151 3154 3153 3151 3149 3147 3147 3147 3146 3146 3148 3146 3148 3151
3157 3156 3153 3150 3148 3146 3144 3142 3142 3142 3139 3137 3137 3138 3138 3138 3136 3134 3134 3135 3136 3137 3139 3139 3134 3139 3143 3144 3144 3145 3146 3148 3150 3148 3148 3145 3142 3142 3142 3141 3140 3141 3143 3145 3147
3154 3153 3149 3147 3144 3142 3140 3140 3139 3139 3139 3138 3137 3137 3137 3138 3136 3135 3134 3133 3133 3133 3134 3133 3134 3136 3137 3138 3139 3140 3143 3145 3145 3144 3144 3141 3138 3137 3139 3138 3137 3138 3139 3140 3142
3150 3149 3146 3144 3144 3140 3139 3138 3137 3136 3135 3138 3136 3135 3135 3134 3135 3133 3131 3132 3130 3129 3128 3127 3129 3130 3132 3132 3137 3136 3140 3141 3141 3141 3140 3139 3135 3134 3134 3135 3135 3135 3136 3137 3139
3146 3145 3142 3141 3140 3138 3138 3135 3134 3133 3135 3137 3135 3134 3134 3135 3134 3133 3130 3128 3127 3125 3125 3123 3123 3125 3124 3126 3131 3130 3135 3135 3136 3134 3134 3135 3135 3130 3129 3129 3131 3132 3133 3135 3135
3143 3142 3140 3139 3137 3136 3133 3132 3132 3135 3132 3134 3133 3133 3134 3133 3132 3131 3129 3125 3123 3121 3119 3119 3120 3120 3121 3122 3124 3126 3128 3129 3130 3130 3127 3129 3128 3125 3124 3125 3125 3127 3128 3129 3129
3140 3138 3138 3136 3134 3133 3132 3132 3134 3132 3134 3134 3132 3131 3130 3130 3131 3129 3128 3125 3123 3120 3118 3116 3116 3114 3114 3116 3118 3120 3123 3124 3123 3123 3118 3120 3121 3120 3121 3120 3120 3121 3121 3121 3122
3137 3135 3134 3132 3131 3130 3130 3132 3132 3132 3132 3132 3131 3130 3130 3129 3129 3128 3127 3126 3124 3121 3117 3114 3112 3110 3109 3107 3112 3114 3117 3117 3116 3115 3113 3116 3113 3114 3115 3115 3114 3114 3114 3114 3114
3134 3132 3131 3130 3129 3129 3130 3130 3130 3131 3132 3131 3131 3130 3130 3130 3129 3127 3126 3125 3124 3122 3120 3115 3111 3108 3105 3104 3108 3109 3111 3113 3113 3113 3114 3110 3109 3108 3110 3109 3108 3107 3107 3107 3107
3131 3129 3128 3128 3127 3128 3129 3128 3129 3130 3131 3130 3130 3130 3129 3129 3129 3127 3125 3125 3123 3122 3119 3116 3111 3107 3105 3103 3104 3104 3106 3108 3108 3108 3107 3104 3105 3105 3102 3102 3103 3102 3101 3100 3098
3128 3126 3126 3126 3126 3127 3127 3127 3128 3129 3130 3130 3130 3129 3129 3128 3128 3127 3126 3125 3122 3119 3118 3114 3112 3109 3105 3104 3102 3101 3100 3101 3101 3103 3101 3101 3098 3099 3098 3098 3100 3098 3096 3094 3092
3125 3125 3124 3124 3127 3125 3125 3125 3127 3127 3128 3128 3128 3128 3127 3127 3127 3126 3125 3123 3122 3118 3115 3113 3110 3107 3104 3101 3100 3098 3098 3098 3096 3098 3095 3096 3092 3091 3092 3092 3095 3094 3093 3091 3087
3122 3122 3122 3122 3123 3123 3124 3124 3124 3126 3126 3126 3126 3126 3126 3126 3126 3123 3122 3121 3119 3117 3115 3112 3109 3106 3102 3101 3098 3098 3095 3095 3093 3091 3088 3089 3087 3088 3088 3088 3089 3089 3088 3087 3082
3121 3120 3119 3119 3120 3121 3122 3122 3123 3123 3123 3124 3124 3124 3124 3123 3122 3120 3118 3115 3114 3113 3112 3109 3105 3105 3103 3101 3098 3094 3095 3091 3092 3089 3084 3078 3081 3082 3083 3084 3084 3083 3083 3081 3078
3117 3116 3116 3116 3117 3117 3119 3119 3119 3120 3121 3121 3122 3121 3120 3119 3118 3115 3113 3110 3109 3108 3107 3105 3102 3100 3098 3096 3094 3092 3090 3088 3090 3085 3084 3082 3082 3079 3079 3078 3080 3080 3080 3078 3075
3114 3114 3114 3113 3113 3114 3114 3115 3116 3116 3118 3118 3119 3118 3117 3116 3115 3111 3109 3107 3103 3102 3101 3100 3099 3096 3093 3093 3091 3088 3086 3086 3083 3079 3079 3080 3077 3076 3075 3075 3077 3075 3076 3075 3073
3109 3109 3109 3110 3110 3111 3111 3111 3111 3112 3114 3114 3114 3114 3114 3112 3110 3107 3104 3100 3098 3096 3095 3095 3095 3094 3091 3089 3088 3087 3084 3082 3078 3078 3073 3078 3079 3075 3073 3076 3077 3076 3075 3075 3073
Wind_Speed
16 16 17 17 17 18 19 20 18 16 14 12 11 11 12 12 13 12 12 12 13 15 16 17 17 17 16 15 13 11 11 11 8 12 13 17 21 11 13 19 23 18 10 7 5
17 18 18 18 18 19 19 19 18 19 21 19 16 15 14 14 14 13 13 14 13 13 15 16 18 20 20 20 17 14 16 14 10 10 13 13 16 13 11 15 15 15 11 6 4
20 21 21 21 21 21 21 21 21 20 18 18 21 22 19 16 16 17 16 13 13 12 13 15 18 21 23 23 22 22 22 17 17 13 11 13 12 12 12 10 11 11 9 6 4
20 21 21 21 20 20 22 22 22 21 21 21 21 20 23 21 14 14 14 14 14 13 11 11 13 17 22 23 23 24 26 22 24 20 18 16 15 15 13 11 11 14 10 11 8
18 19 19 19 19 19 20 20 19 19 21 22 22 21 21 23 21 16 17 18 18 17 16 17 18 18 20 20 20 22 25 26 25 26 26 21 21 20 16 12 15 16 14 14 13
18 18 18 18 18 18 19 20 19 19 18 17 19 21 24 24 20 22 23 21 23 21 22 23 21 21 23 24 22 21 20 22 26 27 28 28 26 20 14 19 17 19 14 16 15
17 17 17 16 16 16 16 16 16 16 17 17 19 19 20 15 22 21 20 23 22 25 25 23 20 18 18 20 22 20 21 25 26 26 29 27 29 21 21 23 20 20 13 15 18
17 17 18 19 18 18 19 19 19 18 16 14 14 16 18 15 17 24 28 28 27 24 25 25 22 24 23 20 19 15 17 17 21 20 20 21 26 24 23 26 22 22 20 14 19
18 18 20 21 23 23 22 21 20 19 17 15 13 12 11 11 10 14 23 30 32 33 31 30 26 26 26 20 18 20 19 18 21 15 16 15 17 17 20 18 18 21 24 17 22
21 21 22 23 25 23 22 21 19 17 13 13 8 5 6 12 15 16 15 21 28 30 32 33 29 27 27 21 20 19 18 11 11 18 18 21 24 19 14 18 18 20 26 19 21
21 21 22 23 25 23 19 18 15 10 12 10 8 5 7 8 14 14 22 21 20 25 27 28 28 30 31 28 27 28 26 19 20 20 23 16 19 18 15 14 11 14 14 15 18
21 20 22 23 25 22 20 18 15 10 7 4 2 3 4 7 5 7 8 16 22 23 22 25 31 29 25 26 29 28 24 21 23 11 19 22 23 17 14 11 8 8 9 17 21
20 20 22 23 22 21 19 17 13 10 3 4 3 1 8 3 3 7 8 10 14 23 28 30 22 18 22 27 31 26 22 23 21 23 22 21 19 19 14 13 9 9 9 16 24
22 21 21 20 18 18 16 14 11 8 1 3 3 5 7 10 4 10 15 15 16 15 18 27 36 31 27 26 27 26 22 26 26 22 19 13 17 21 17 14 11 10 10 9 16
23 21 20 18 16 15 13 11 8 9 0 2 3 7 7 8 9 8 14 17 19 18 17 20 22 26 27 28 26 28 24 23 18 18 18 14 9 14 15 14 10 7 10 14 19
22 20 18 16 14 13 12 11 8 3 1 3 6 8 7 8 7 7 9 14 12 16 18 21 19 19 25 24 18 18 14 18 16 17 12 13 13 9 7 10 9 9 12 17 18
20 18 16 14 12 10 9 6 3 1 5 8 8 14 10 7 4 5 6 11 17 12 13 19 15 17 29 22 19 12 9 8 7 7 11 12 8 10 12 9 11 13 13 14 16
18 17 15 12 11 9 6 3 1 1 4 11 13 8 3 13 3 5 4 12 17 20 15 8 10 14 17 34 25 20 16 12 9 7 9 12 11 10 13 11 15 16 15 20 24
16 14 12 11 9 7 5 1 3 0 4 8 6 5 5 10 5 9 8 10 13 21 15 8 9 15 15 18 24 19 16 18 18 10 8 11 15 17 11 12 11 13 16 22 21
14 12 11 10 7 5 4 4 4 2 1 5 6 8 10 10 8 10 6 8 11 18 19 10 13 12 9 10 19 19 15 10 9 8 11 13 18 20 26 24 19 15 17 18 24
13 12 11 9 8 5 5 5 7 2 2 1 3 5 7 8 9 9 6 12 12 19 20 17 10 14 16 9 9 9 12 14 11 8 7 12 20 24 28 27 22 23 26 30 30
13 11 10 9 7 4 5 6 8 5 3 2 2 1 4 6 7 8 10 11 17 18 21 15 14 12 18 18 10 6 8 13 15 10 16 16 26 18 20 21 20 23 23 24 28
12 11 11 9 6 5 5 6 6 7 5 3 5 3 4 6 7 8 13 16 17 19 19 16 10 13 16 6 5 7 8 11 12 18 24 17 11 14 16 20 23 24 23 20 20
12 8 9 11 11 8 8 8 8 6 4 5 6 6 8 10 9 13 17 21 19 19 19 16 16 13 11 12 15 24 17 13 15 10 20 31 24 20 23 23 26 17 19 17 12
12 11 12 10 9 9 10 9 9 8 8 7 8 11 11 12 15 16 22 26 21 18 13 15 14 17 17 14 19 21 20 17 8 8 9 22 20 28 21 17 14 12 12 11 10
13 12 13 14 14 13 12 13 13 12 10 9 9 10 10 12 12 21 23 25 29 20 17 21 10 18 18 22 22 19 18 18 19 16 17 10 10 16 10 8 8 2 5 5 6
15 14 13 14 14 13 14 15 17 17 14 14 12 11 11 13 17 22 26 29 29 25 22 22 17 14 18 17 17 16 11 13 14 22 19 20 16 10 8 5 5 4 5 3 4
Wind_Direction
296 296 295 293 291 288 283 280 275 272 271 272 278 270 267 267 271 271 264 263 263 264 256 253 258 266 273 283 286 292 304 307 331 350 1 4 357 318 306 295 296 294 292 330 345
296 294 292 289 287 286 285 283 283 280 275 272 271 270 266 265 264 263 261 262 262 261 256 252 251 258 263 271 278 280 277 287 292 312 328 353 359 351 302 293 295 304 294 311 321
298 298 297 294 291 288 286 282 279 275 273 273 271 269 270 276 268 274 265 256 249 256 252 248 248 253 255 257 263 270 267 275 279 290 296 319 345 356 343 323 310 316 296 304 313
301 302 302 300 298 295 290 286 282 282 282 279 272 263 257 261 271 290 266 260 256 256 253 257 258 258 264 266 270 264 268 272 278 284 285 296 312 320 330 336 300 287 286 271 300
306 306 304 304 304 303 298 296 296 290 284 276 269 265 266 263 252 255 258 254 253 257 259 263 267 270 271 272 274 270 266 268 272 277 283 286 293 308 315 317 323 311 283 276 281
311 311 311 310 308 303 296 298 299 296 292 285 280 273 266 262 261 254 254 252 245 244 253 259 268 272 278 274 273 267 257 264 263 268 276 281 282 289 291 307 304 305 282 259 263
320 317 316 318 322 317 313 315 313 309 297 289 283 279 274 277 256 251 243 240 246 250 254 255 255 265 270 276 280 278 266 264 264 266 276 286 276 262 275 294 289 292 286 230 239
321 320 322 323 327 327 326 323 322 322 316 303 292 282 283 273 260 247 243 240 240 247 252 251 252 258 264 269 262 260 263 267 288 279 282 289 270 269 272 276 272 274 278 221 230
326 325 325 324 325 326 326 321 322 322 318 308 298 295 293 280 267 252 247 242 244 245 247 252 256 252 258 261 260 264 267 270 286 286 293 270 276 257 253 256 257 265 266 221 222
329 329 326 325 322 321 321 322 321 324 319 317 318 322 288 271 268 251 250 244 240 244 247 251 256 248 246 242 244 260 266 266 288 297 287 281 277 258 270 244 238 255 260 213 217
323 323 322 320 317 320 321 319 326 333 328 323 308 303 327 334 311 273 254 254 250 245 244 250 252 242 252 258 259 261 267 280 293 297 292 292 297 253 272 235 224 242 241 206 226
314 316 317 318 318 323 327 332 335 340 332 344 157 40 27 20 6 350 269 246 252 253 246 251 251 255 253 250 255 258 265 274 287 274 305 301 297 258 268 246 234 244 256 226 227
312 317 320 321 321 327 329 326 328 335 293 194 207 271 4 356 328 337 336 321 288 259 253 258 260 261 257 249 251 255 256 266 276 288 299 304 297 272 277 288 246 233 258 246 232
316 322 321 322 321 323 320 320 325 340 153 181 248 281 344 338 280 335 319 319 307 310 279 265 262 262 257 251 249 255 261 266 277 289 293 286 296 303 285 285 259 239 258 258 247
319 325 321 321 318 318 316 320 330 345 98 300 259 290 321 356 329 324 323 311 304 293 274 275 277 253 249 255 255 253 268 274 277 276 281 274 263 289 292 276 253 271 307 305 269
319 321 317 317 316 319 318 322 335 350 87 300 315 314 300 291 328 325 334 344 297 285 273 271 266 245 253 259 251 258 256 272 273 263 257 257 249 272 273 294 272 281 297 309 269
319 317 316 316 317 316 313 313 309 151 315 346 339 334 339 351 285 352 357 9 28 350 323 297 277 275 251 242 242 239 226 245 238 218 256 250 222 249 295 301 304 285 281 285 268
318 315 314 317 318 317 310 307 158 256 328 348 347 353 49 17 340 334 29 26 20 10 337 313 306 299 288 244 231 238 222 234 257 244 261 280 267 265 300 305 312 297 283 288 291
313 311 311 319 322 317 295 194 155 209 358 12 12 28 27 20 6 338 359 1 359 4 358 314 299 312 284 259 228 237 225 248 247 255 258 259 271 282 271 275 290 294 297 289 288
311 309 307 310 312 306 263 194 160 181 56 35 36 27 17 3 353 346 346 349 333 350 360 335 314 332 330 262 234 237 249 234 221 231 261 264 284 287 277 276 298 280 308 311 317
310 305 301 296 303 290 232 192 176 151 183 42 44 28 19 7 352 339 310 324 326 327 339 343 330 306 309 303 280 252 227 230 234 197 253 272 272 268 279 288 291 301 298 309 315
302 294 291 286 282 266 218 206 206 184 167 235 241 330 342 337 335 313 306 312 327 320 326 330 322 314 314 306 279 276 264 247 240 211 234 257 268 269 266 277 281 307 307 304 315
295 285 274 268 263 254 230 237 230 208 197 234 229 250 290 304 306 286 296 302 309 304 324 323 305 315 315 319 279 335 346 308 285 251 241 232 245 257 269 263 282 295 301 306 313
290 276 273 263 259 257 242 254 236 241 246 240 238 257 285 290 296 304 312 311 310 289 302 305 292 280 279 292 292 291 310 299 327 272 260 234 245 243 258 267 273 284 304 305 301
284 273 266 265 270 265 257 263 262 249 247 260 263 268 288 297 307 308 318 318 302 305 277 306 304 288 274 286 297 282 293 306 308 321 304 278 273 246 238 247 269 292 302 297 292
279 276 267 265 268 267 268 270 269 265 264 274 273 265 277 294 298 305 312 318 308 298 285 290 285 294 296 276 281 304 287 296 280 288 311 322 258 227 201 219 227 241 259 289 307
272 272 266 265 265 265 268 269 268 268 265 262 258 267 288 298 304 308 306 301 293 284 275 280 293 284 284 284 294 291 280 295 299 302 278 286 259 243 203 189 150 111 107 84 21